TEVEL2-7

Last updated on Mon Sep 21 2026 00:03:15 GMT+0000 (Coordinated Universal Time)

1 63238U 25052AE 26263.24006731 .00011372 00000+0 34556-3 0 9997 2 63238 97.3793 158.3628 0006718 146.4100 213.7571 15.34200015 84585
UTC large
Height (km)
Speed (km/s)
/
Latitude / Longitude
Inclination (degrees)
Orbital Period (minutes)
Azimuth
Elevation
Range (km)
Doppler Factor

Next 0 passes for location: London (51.5072 / 0.1276)

No passes found over London.
TEVEL2-7